Location: Newark
(47.4417°N, 1.1394°W)
Time: 17:44:54
(UTC+00:00)

N. Korean satellite - Visible Passes

Search period start: 15 November 2019 00:00
Search period end: 25 November 2019 00:00
Orbit: 456 x 506 km, 97.2° (Epoch: 14 November)

Date Brightness Start Highest point End Pass type
(mag) Time Alt. Az. Time Alt. Az. Time Alt. Az.
15 Nov 10.4 04:46:11 10° E 04:46:43 10° E 04:47:15 10° E visible
15 Nov 6.6 06:16:51 10° N 06:20:33 68° WNW 06:24:13 10° SSW visible
16 Nov 7.3 05:51:29 10° NNE 05:55:11 59° E 05:58:50 10° S visible
16 Nov 9.7 18:04:14 10° SW 18:06:49 18° W 18:09:26 10° NW visible
17 Nov 8.8 05:26:24 10° NNE 05:29:43 29° E 05:32:58 10° SSE visible
17 Nov 8.5 17:37:55 10° SSW 17:41:16 34° W 17:44:40 10° NNW visible
18 Nov 9.8 05:01:47 10° NE 05:04:08 16° E 05:06:28 10° SE visible
18 Nov 7.0 06:34:12 10° N 06:37:45 42° WNW 06:41:14 10° SW visible
18 Nov 7.0 17:12:11 10° S 17:15:49 71° W 17:19:31 10° NNW visible
19 Nov 6.6 06:08:41 10° NNE 06:12:25 85° WNW 06:16:06 10° SSW visible
19 Nov 10.2 18:22:45 10° WSW 18:24:13 12° W 18:25:41 10° WNW visible
20 Nov 7.8 05:43:24 10° NNE 05:47:00 47° E 05:50:33 10° S visible
20 Nov 9.4 17:55:39 10° SSW 17:58:35 22° W 18:01:33 10° NW visible
21 Nov 9.1 05:18:25 10° NE 05:21:29 24° E 05:24:31 10° SSE visible
21 Nov 8.0 17:29:33 10° S 17:33:03 43° W 17:36:37 10° NNW visible
22 Nov 10.1 04:54:06 10° ENE 04:55:52 13° E 04:57:37 10° ESE visible
22 Nov 6.7 06:25:58 10° N 06:29:35 52° WNW 06:33:08 10° SSW visible
22 Nov 6.7 17:03:57 10° SSE 17:07:36 88° WSW 17:11:21 10° NNW visible
23 Nov 6.8 06:00:31 10° NNE 06:04:14 77° ESE 06:07:52 10° S visible
23 Nov 10.0 18:13:46 10° SW 18:15:55 15° W 18:18:04 10° NW visible
24 Nov 8.2 05:35:18 10° NNE 05:38:46 37° E 05:42:09 10° SSE visible
24 Nov 9.0 17:47:07 10° SSW 17:50:19 27° W 17:53:33 10° NW visible
